TimeAKST,TemperatureF,Dew PointF,Humidity,Sea Level PressureIn,VisibilityMPH,Wind Direction,Wind SpeedMPH,Gust SpeedMPH,PrecipitationIn,Events,Conditions,WindDirDegrees,DateUTC
12:16 AM,37.4,33.8,87,29.48,10.0,NNE,10.4,-,N/A,,Overcast,20,2013-11-21 09:16:00
12:36 AM,37.4,33.8,87,29.48,10.0,NNE,9.2,-,N/A,,Overcast,20,2013-11-21 09:36:00
12:56 AM,37.4,33.8,87,29.47,10.0,North,10.4,-,N/A,,Overcast,10,2013-11-21 09:56:00
1:16 AM,37.4,33.8,87,29.46,10.0,NNE,15.0,20.7,N/A,,Overcast,20,2013-11-21 10:16:00
1:36 AM,37.4,33.8,87,29.46,10.0,North,13.8,19.6,N/A,,Overcast,10,2013-11-21 10:36:00
1:56 AM,37.4,33.8,87,29.45,10.0,North,16.1,21.9,N/A,,Overcast,10,2013-11-21 10:56:00
2:16 AM,37.4,33.8,87,29.45,10.0,North,11.5,19.6,N/A,,Overcast,10,2013-11-21 11:16:00
2:36 AM,37.4,33.8,87,29.44,10.0,North,12.7,-,N/A,,Overcast,10,2013-11-21 11:36:00
2:56 AM,37.4,33.8,87,29.43,10.0,North,13.8,-,N/A,,Overcast,10,2013-11-21 11:56:00
3:16 AM,37.4,33.8,87,29.42,10.0,North,12.7,-,N/A,,Overcast,10,2013-11-21 12:16:00
3:36 AM,37.4,33.8,87,29.42,10.0,North,16.1,-,N/A,,Overcast,350,2013-11-21 12:36:00
3:56 AM,37.4,33.8,87,29.40,10.0,North,16.1,20.7,N/A,,Overcast,350,2013-11-21 12:56:00
4:16 AM,37.4,33.8,87,29.40,10.0,North,16.1,-,N/A,,Overcast,360,2013-11-21 13:16:00
4:36 AM,37.4,33.8,87,29.39,10.0,North,15.0,-,N/A,,Overcast,350,2013-11-21 13:36:00
4:56 AM,37.4,33.8,87,29.38,10.0,North,17.3,-,N/A,,Overcast,350,2013-11-21 13:56:00
5:16 AM,37.4,33.8,87,29.37,10.0,NNW,20.7,24.2,N/A,,Overcast,340,2013-11-21 14:16:00
5:36 AM,37.4,33.8,87,29.36,10.0,NNW,19.6,-,N/A,,Overcast,340,2013-11-21 14:36:00
5:56 AM,37.4,33.8,87,29.34,10.0,NNW,21.9,-,N/A,,Overcast,340,2013-11-21 14:56:00
6:16 AM,37.4,33.8,87,29.34,10.0,NNW,23.0,29.9,N/A,,Overcast,340,2013-11-21 15:16:00
6:36 AM,37.4,33.8,87,29.33,10.0,NNW,21.9,27.6,N/A,,Overcast,340,2013-11-21 15:36:00
6:56 AM,37.4,33.8,87,29.32,10.0,NNW,23.0,27.6,N/A,,Overcast,340,2013-11-21 15:56:00
7:16 AM,37.4,33.8,87,29.31,10.0,NNW,25.3,29.9,N/A,,Overcast,340,2013-11-21 16:16:00
7:36 AM,37.4,33.8,87,29.30,10.0,NNW,23.0,28.8,N/A,,Overcast,340,2013-11-21 16:36:00
7:56 AM,37.4,33.8,87,29.30,10.0,NNW,21.9,-,N/A,,Overcast,340,2013-11-21 16:56:00
8:16 AM,37.4,33.8,87,29.29,10.0,NNW,23.0,26.5,N/A,,Overcast,340,2013-11-21 17:16:00
8:36 AM,37.4,32.0,81,29.28,10.0,NNW,27.6,31.1,N/A,,Overcast,340,2013-11-21 17:36:00
8:56 AM,37.4,32.0,81,29.28,10.0,North,19.6,29.9,N/A,,Overcast,350,2013-11-21 17:56:00
9:16 AM,37.4,32.0,81,29.28,10.0,North,19.6,-,N/A,,Overcast,350,2013-11-21 18:16:00
9:36 AM,35.6,33.8,93,29.28,10.0,North,17.3,-,N/A,,Overcast,350,2013-11-21 18:36:00
9:56 AM,35.6,32.0,87,29.28,10.0,NNW,17.3,23.0,N/A,,Overcast,330,2013-11-21 18:56:00
10:16 AM,35.6,32.0,87,29.27,10.0,NNW,18.4,-,N/A,,Overcast,330,2013-11-21 19:16:00
10:36 AM,35.6,32.0,87,29.26,10.0,NNW,20.7,-,N/A,,Mostly Cloudy,330,2013-11-21 19:36:00
10:56 AM,35.6,32.0,87,29.25,10.0,NNW,18.4,-,N/A,,Overcast,340,2013-11-21 19:56:00
11:16 AM,35.6,32.0,87,29.25,10.0,NW,19.6,-,N/A,,Mostly Cloudy,320,2013-11-21 20:16:00
11:36 AM,35.6,32.0,87,29.24,10.0,NNW,20.7,24.2,N/A,,Mostly Cloudy,330,2013-11-21 20:36:00
11:56 AM,35.6,32.0,87,29.24,10.0,NNW,19.6,25.3,N/A,,Mostly Cloudy,330,2013-11-21 20:56:00
12:16 PM,35.6,33.8,93,29.23,10.0,NNW,23.0,-,N/A,,Mostly Cloudy,330,2013-11-21 21:16:00
12:36 PM,35.6,33.8,93,29.23,10.0,NW,23.0,35.7,N/A,,Mostly Cloudy,320,2013-11-21 21:36:00
12:56 PM,35.6,33.8,93,29.23,10.0,NW,26.5,31.1,N/A,,Mostly Cloudy,320,2013-11-21 21:56:00
1:16 PM,35.6,33.8,93,29.23,10.0,NNW,36.8,40.3,N/A,,Mostly Cloudy,340,2013-11-21 22:16:00
1:36 PM,35.6,33.8,93,29.23,10.0,NNW,24.2,38.0,N/A,,Mostly Cloudy,330,2013-11-21 22:36:00
1:56 PM,35.6,32.0,87,29.23,10.0,NNW,33.4,40.3,N/A,,Mostly Cloudy,340,2013-11-21 22:56:00
2:16 PM,35.6,32.0,87,29.23,10.0,NNW,27.6,41.4,N/A,,Mostly Cloudy,330,2013-11-21 23:16:00
2:36 PM,33.8,32.0,93,29.23,10.0,NNW,25.3,41.4,N/A,,Mostly Cloudy,330,2013-11-21 23:36:00
2:56 PM,33.8,30.2,87,29.24,10.0,NW,25.3,36.8,N/A,,Mostly Cloudy,320,2013-11-21 23:56:00
3:16 PM,33.8,30.2,87,29.24,10.0,NNW,28.8,35.7,N/A,,Mostly Cloudy,330,2013-11-22 00:16:00
3:36 PM,33.8,28.4,81,29.25,10.0,NNW,26.5,34.5,N/A,,Mostly Cloudy,330,2013-11-22 00:36:00
3:56 PM,32.0,28.4,87,29.27,10.0,NW,26.5,35.7,N/A,,Mostly Cloudy,320,2013-11-22 00:56:00
4:16 PM,32.0,28.4,87,29.27,10.0,NW,21.9,35.7,N/A,,Mostly Cloudy,320,2013-11-22 01:16:00
4:36 PM,30.2,26.6,86,29.27,10.0,NW,19.6,28.8,N/A,,Mostly Cloudy,310,2013-11-22 01:36:00
4:56 PM,30.2,28.4,93,29.28,10.0,NW,21.9,32.2,N/A,,Mostly Cloudy,310,2013-11-22 01:56:00
5:16 PM,30.2,26.6,86,29.29,10.0,NW,27.6,31.1,N/A,,Mostly Cloudy,320,2013-11-22 02:16:00
5:36 PM,30.2,26.6,86,29.30,10.0,NW,24.2,33.4,N/A,,Mostly Cloudy,320,2013-11-22 02:36:00
5:56 PM,28.4,26.6,93,29.31,10.0,WNW,19.6,27.6,N/A,,Mostly Cloudy,300,2013-11-22 02:56:00
6:16 PM,28.4,24.8,86,29.33,10.0,WNW,24.2,-,N/A,,Mostly Cloudy,300,2013-11-22 03:16:00
6:36 PM,28.4,24.8,86,29.33,10.0,NW,17.3,26.5,N/A,,Mostly Cloudy,310,2013-11-22 03:36:00
6:56 PM,28.4,23.0,80,29.33,10.0,NW,20.7,27.6,N/A,,Mostly Cloudy,320,2013-11-22 03:56:00
7:16 PM,26.6,21.2,80,29.34,10.0,NNW,21.9,33.4,N/A,,Mostly Cloudy,330,2013-11-22 04:16:00
7:36 PM,26.6,21.2,80,29.33,10.0,NW,27.6,33.4,N/A,,Mostly Cloudy,320,2013-11-22 04:36:00
7:56 PM,26.6,19.4,74,29.35,10.0,NNW,23.0,28.8,N/A,,Mostly Cloudy,330,2013-11-22 04:56:00
8:16 PM,26.6,19.4,74,29.36,10.0,NNW,19.6,26.5,N/A,,Partly Cloudy,330,2013-11-22 05:16:00
8:36 PM,26.6,19.4,74,29.36,10.0,NNW,20.7,29.9,N/A,,Scattered Clouds,340,2013-11-22 05:36:00
8:56 PM,26.6,19.4,74,29.37,10.0,NNW,20.7,24.2,N/A,,Mostly Cloudy,330,2013-11-22 05:56:00
9:16 PM,26.6,19.4,74,29.38,10.0,NNW,21.9,-,N/A,,Mostly Cloudy,330,2013-11-22 06:16:00
9:36 PM,26.6,19.4,74,29.39,10.0,NW,16.1,-,N/A,,Overcast,320,2013-11-22 06:36:00
9:56 PM,26.6,19.4,74,29.40,10.0,NNW,21.9,25.3,N/A,,Overcast,330,2013-11-22 06:56:00
10:16 PM,26.6,19.4,74,29.40,10.0,NNW,16.1,-,N/A,,Overcast,330,2013-11-22 07:16:00
10:36 PM,26.6,19.4,74,29.40,10.0,NW,18.4,24.2,N/A,,Overcast,320,2013-11-22 07:36:00
10:56 PM,26.6,19.4,74,29.41,10.0,NW,23.0,26.5,N/A,,Overcast,310,2013-11-22 07:56:00
11:16 PM,26.6,21.2,80,29.42,10.0,NW,18.4,24.2,N/A,,Overcast,320,2013-11-22 08:16:00
11:36 PM,26.6,19.4,74,29.41,10.0,NNW,16.1,-,N/A,,Mostly Cloudy,330,2013-11-22 08:36:00
11:56 PM,26.6,19.4,74,29.42,10.0,NW,16.1,20.7,N/A,,Mostly Cloudy,310,2013-11-22 08:56:00